Location: Peebles
(55.6412°N, 3.1714°W)
Time: 18:25:10
(UTC+01:00)

USA 238 DEB - Pass Details

Date: 19 January 2022
Orbit: 969 x 1243 km, 63.4° (Epoch: 04 May)

Event Time Altitude Azimuth Distance (km) Brightness Sun altitude
Rises 22:40:55 0° 296° (WNW) 3,836 7.2 -49.7°
Reaches altitude 10° 22:43:35 10° 301° (WNW) 2,919 6.4 -49.9°
Enters shadow 22:44:35 15° 304° (NW) 2,593 6.1 -50.0°
